Regional Weather Roundup
Issued by NWS

Home | Current Version | Previous Version | Graphics & Text | Print | Product List | Glossary On
Versions: 1 2 3 4 5 6 7 8 9 10 11 12 13 14 15 16 17 18 19 20 21 22 23 24 25 26 27 28 29 30 31 32 33 34 35 36 37 38 39 40 41 42 43 44 45 46 47 48 49 50
000
ASUS43 KOAX 011302
RWRNE

WEATHER ROUNDUP FOR NEBRASKA
NATIONAL WEATHER SERVICE OMAHA NE
800 AM CDT FRI AUG 01 2014

NOTES: SATELLITE DATA IS BEING USED TO AUGMENT CLOUD COVER ABOVE
       12000 FEET.
       "FAIR" INDICATES FEW OR NO CLOUDS BELOW 12,000 FEET WITH NO
       SIGNIFICANT WEATHER AND/OR OBSTRUCTIONS TO VISIBILITY.

  * THESE STATIONS DO NOT REPORT WEATHER SUCH AS RAIN...SNOW OR FOG.

NEZ001>004-019>022-054>056-011400-
NEBRASKA PANHANDLE

CITY           SKY/WX    TMP DP  RH WIND       PRES   REMARKS
SCOTTSBLUFF    SUNNY     58  51  78 CALM      30.20R
ALLIANCE       SUNNY     54  47  77 CALM      30.19R
CHADRON        SUNNY     57  48  72 CALM      30.15R
KIMBALL        SUNNY     57  53  86 W7        30.23R
SIDNEY         SUNNY     58  49  72 NW5       30.21R
$$

NEZ057>060-069>072-079>082-011400-
SOUTHWEST NEBRASKA

CITY           SKY/WX    TMP DP  RH WIND       PRES   REMARKS
NORTH PLATTE   SUNNY     58  54  86 CALM      30.14S
IMPERIAL       SUNNY     63  55  75 N3        30.15S
LEXINGTON      SUNNY     59  57  94 NW3       30.13R FOG
MCCOOK         SUNNY     60  56  86 CALM      30.13R
OGALLALA       SUNNY     54  52  92 W3        30.16R
$$

NEZ005>010-023>029-035>040-094-011400-
NORTH CENTRAL NEBRASKA

CITY           SKY/WX    TMP DP  RH WIND       PRES   REMARKS
VALENTINE      SUNNY     59  55  87 SW6       30.12R
AINSWORTH      SUNNY     61  61 100 S3        30.13R
BROKEN BOW     SUNNY     60  58  92 CALM      30.13R
O`NEILL        SUNNY     61  61 100 CALM      30.12R FOG
ORD            SUNNY     60  58  92 NW5       30.11R FOG
THEDFORD       SUNNY     58  56  90 CALM      30.15S
$$

NEZ041-046>049-061>064-073>077-083>087-011400-
SOUTH CENTRAL NEBRASKA

CITY           SKY/WX    TMP DP  RH WIND       PRES   REMARKS
GRAND ISLAND   SUNNY     62  58  86 N5        30.10R
AURORA         SUNNY     61  61 100 N6        30.08S FOG
HASTINGS       SUNNY     62  57  83 N6        30.09R
HEBRON         SUNNY     62  57  84 NW3       30.05R HAZE
HOLDREGE       SUNNY     62  60  94 N5        30.12R FOG
KEARNEY *      SUNNY     61  57  88 W7        30.12R
YORK           SUNNY     59  59 100 N6        30.07R
$$

NEZ011>018-030>034-042>045-011400-
NORTHEAST NEBRASKA

CITY           SKY/WX    TMP DP  RH WIND       PRES   REMARKS
NORFOLK        SUNNY     61  58  90 CALM      30.10R
ALBION         SUNNY     59  58  97 CALM      30.11R FOG
BLAIR          SUNNY     64  60  87 CALM      30.07R
COLUMBUS *     SUNNY     63  57  82 CALM      30.09R
FREMONT        SUNNY     66  62  86 NE3       30.07S
TEKAMAH        SUNNY     63  60  90 N6        30.08R
WAYNE          FOG       57  56  99 CALM      30.11R VSB 1/2
$$

NEZ050>053-065>068-078-088>093-011400-
SOUTHEAST NEBRASKA

CITY           SKY/WX    TMP DP  RH WIND       PRES   REMARKS
LINCOLN        SUNNY     68  59  73 E8        30.06R
OMAHA EPPLEY   PTSUNNY   68  61  78 E3        30.07R
BEATRICE       SUNNY     66  60  79 SW3       30.03S
FALLS CITY     SUNNY     66  62  87 E9        30.05F
NEBRASKA CITY  PTSUNNY   66  61  83 SE7       30.06R
PLATTSMOUTH    CLOUDY    66  62  89 E6        30.06S
$$

NEZ044-045-051>053-067-011400-
OMAHA AREA

CITY           SKY/WX    TMP DP  RH WIND       PRES   REMARKS
OMAHA EPPLEY   PTSUNNY   68  61  78 E3        30.07R
BLAIR          SUNNY     64  60  87 CALM      30.07R
FREMONT        SUNNY     66  62  86 NE3       30.07S
MILLARD        PTSUNNY   67  62  82 CALM      30.06S
OFFUTT AFB     PTSUNNY   67  67  98 E3        30.06R
PLATTSMOUTH    CLOUDY    66  62  89 E6        30.06S
WAHOO          FAIR      65  62  90 CALM      30.07R
$$


USA.gov is the U.S. government's official web portal to all federal, state and local government web resources and services.